Simultaneous Nadir Overpasses (SNOs) Predictions

Prediction of SNOs between AQUA and NOAA-19 Satellite Orbit:

Table of predicted SNOs for the next 14.0 days since TLE Epoch: 3/29/2019
Index Date (AQUA) Time (AQUA) Lat,Lon (AQUA) SZA (AQUA ) Date (NOAA-19) Time (NOAA-19) Lat,Lon (NOAA-19) SZA (NOAA-19 ) Distance(km) Time Diff (sec)
1 03/30/2019 03:49:18 80.50, 87.59 78.70 03/30/2019 03:48:42 80.49, 87.45 78.71 2.93 36
2 03/30/2019 04:38:45 -80.52,-104.93 101.30 03/30/2019 04:39:39 -80.51,-104.91 101.33 1.17 54
3 04/01/2019 09:23:03 -80.50,-175.83 102.19 04/01/2019 09:22:07 -80.49,-175.80 102.18 1.26 56
4 04/01/2019 10:12:30 80.51, -8.31 77.82 04/01/2019 10:13:10 80.49, -8.47 77.81 3.44 40
5 04/03/2019 14:56:48 80.49, -79.23 76.94 04/03/2019 14:55:38 80.48, -79.22 76.96 1.34 70
6 04/03/2019 15:46:14 -80.48, 88.56 103.11 04/03/2019 15:46:34 -80.50, 88.46 103.09 3.01 20
7 04/05/2019 21:20:00 80.51,-175.17 76.09 04/05/2019 21:20:06 80.49,-175.18 76.07 2.51 6
8 04/08/2019 02:53:44 -80.49, -78.37 104.81 04/08/2019 02:53:29 -80.50, -78.20 104.81 3.28 15
9 04/10/2019 08:27:29 80.49, 18.20 74.35 04/10/2019 08:27:01 80.49, 18.36 74.35 2.94 28
10 04/10/2019 09:16:56 -80.51,-174.37 105.63 04/10/2019 09:17:57 -80.49,-174.31 105.67 1.60 61




NCC Satellite Simultaneous Nadir Overpasses (SNOs) Prediction Service
